[[[{"header":{"parameterUnit":"kt","parameterCategory":2,"dx":1,"dy":1,"la1":30.253999710083008,"la2":30.299108505249023,"lo1":-89.0895004272461,"lo2":-89.04439544677734,"nx":28,"ny":28,"refTime":"2022-10-15T21:00:00:Z","depth":0,"parameterNumber":1,"parameterNumberName":"U-component_of_WINDS"},"data":[-5.0325,-5.0379,-5.0338,-5.0383,-5.0353,-5.0377,-5.0372,-5.0362,-5.0344,-5.0369,-5.0377,-5.0342,-5.0308,-5.0308,-5.0315,-5.0299,-5.0305,-5.0357,-5.0329,-5.0133,-5.0103,-5.0074,-5.0057,-5.0359,-5.036,-5.0537,-5.0539,-5.054,-5.0196,-5.0167,-5.0177,-5.0158,-5.0168,-5.0094,-5.0074,-5.0087,-5.011,-5.0087,-5.009,-5.0109,-5.0118,-5.0064,-5.0066,-5.0093,-5.0057,-5.0097,-5.0093,-5.0089,-4.9879,-4.9861,-5.0126,-5.0126,-5.0126,-5.0126,-5.0126,-5.0126,-4.9949,-4.9982,-4.9945,-4.9954,-4.9933,-4.9921,-4.9946,-4.9899,-4.9909,-4.9903,-4.985,-4.9875,-4.9843,-4.9822,-4.9804,-4.9824,-4.9772,-4.9801,-4.9808,-4.9816,-4.9833,-4.9586,-4.9822,-4.9821,-4.9821,-4.982,-4.9819,0,-4.9754,-4.9716,-4.9719,-4.9713,-4.9717,-4.9707,-4.969,-4.9705,-4.9606,-4.9618,-4.9632,-4.9632,-4.9634,-4.9642,-4.9633,-4.9606,-4.9527,-4.9514,-4.9534,-4.9559,-4.9587,-4.9574,-4.9234,-4.9506,-4.9503,-4.9501,-4.95,-4.9499,-4.9501,-4.9543,-4.9481,-4.949,-4.9468,-4.9484,-4.9484,-4.9393,-4.9398,-4.9364,-4.9399,-4.9405,-4.9404,-4.9433,-4.9375,-4.9376,-4.9336,-4.9446,-4.9335,-4.9362,-4.9338,-4.9336,-4.9341,-4.9468,-4.9472,-4.9475,-4.9478,0,-4.9364,-4.9289,-4.9339,-4.927,-4.9255,-4.9305,-4.9246,-4.9275,-4.9223,-4.9257,-4.9259,-4.9177,-4.9191,-4.9114,-4.9113,-4.9073,-4.916,-4.9122,-4.9172,-4.9159,-4.925,-4.9243,-4.9555,-4.9591,-4.9278,-4.9281,-4.9284,0,-4.9118,-4.9176,-4.906,-4.9093,-4.9157,-4.906,-4.9126,-4.9086,-4.9051,-4.9076,-4.8973,-4.8999,-4.8893,-4.891,-4.8849,-4.8906,-4.8905,-4.8877,-4.8859,-4.8885,-4.8889,-4.8883,-4.8869,-4.8817,-4.8816,-4.8814,-4.8813,0,-4.8908,-4.8912,-4.8965,-4.8953,-4.8882,-4.8911,-4.8883,-4.8841,-4.8841,-4.8829,-4.8828,-4.8822,-4.8818,-4.8816,-4.8736,-4.8665,-4.8803,-4.8688,-4.8774,-4.8777,-4.8806,-4.8804,-4.9103,-4.8811,-4.8811,-4.881,-4.881,0,-4.8695,-4.8682,-4.8769,-4.8707,-4.8711,-4.8746,-4.8731,-4.8741,-4.8705,-4.8668,-4.8657,-4.8575,-4.8616,-4.8508,-4.8564,-4.8493,-4.8496,-4.8472,-4.8476,-4.8472,-4.8353,-4.8531,-4.8824,-4.8851,-4.8476,-4.8473,-4.847,0,-4.8478,-4.8542,-4.8456,-4.8541,-4.8559,-4.8439,-4.8476,-4.8445,-4.8397,-4.8406,-4.8353,-4.8365,-4.8267,-4.8258,-4.8297,-4.8242,-4.8335,-4.8227,-4.8246,-4.8248,-4.8259,-4.8528,-4.859,-4.8769,-4.8433,-4.8437,-4.844,0,-4.8297,-4.8204,-4.8225,-4.8206,-4.8146,-4.8159,-4.8202,-4.8189,-4.8201,-4.8175,-4.8209,-4.8222,-4.8149,-4.8135,-4.8066,-4.811,-4.827,-4.8024,-4.8022,-4.8072,-4.8407,-4.8467,-4.8497,-4.8214,-4.8219,-4.8222,-4.8411,0,-4.7995,-4.8014,-4.8065,-4.8024,-4.8021,-4.8067,-4.7975,-4.7985,-4.7918,-4.7863,-4.791,-4.7859,-4.7845,-4.7857,-4.779,-4.7915,-4.7881,-4.7801,-4.7686,-4.7864,-4.7924,-4.7948,-4.7606,-4.7602,-4.7599,-4.7596,0,0,-4.7805,-4.7828,-4.7727,-4.7761,-4.7752,-4.762,-4.7678,-4.7653,-4.7606,-4.7604,-4.754,-4.755,-4.751,-4.7575,-4.7624,-4.7618,-4.7632,-4.7571,-4.778,-4.7801,-4.782,-4.7886,-4.7913,-4.759,-4.7589,-4.7588,-4.7587,0,-4.7673,-4.7632,-4.7688,-4.7658,-4.7608,-4.7545,-4.756,-4.7486,-4.7453,-4.7495,-4.7384,-4.7401,-4.7408,-4.7381,-4.7369,-4.7562,-4.7477,-4.7565,-4.77,-4.775,-4.7776,-4.7798,-4.7868,-4.7895,-4.7579,-4.7579,-4.7579,0,-4.7478,-4.7423,-4.7439,-4.7407,-4.7372,-4.7392,-4.725,-4.7275,-4.7289,-4.714,-4.7183,-4.7142,-4.7096,-4.7169,-4.7198,-4.7139,-4.7342,-4.7259,-4.7278,-4.7278,-4.7322,-4.7352,-4.738,-4.702,-4.7019,-4.7017,0,0,-4.7377,-4.7391,-4.7299,-4.7371,-4.7357,-4.7262,-4.7261,-4.7192,-4.7152,-4.7136,-4.7079,-4.7045,-4.7048,-4.7053,-4.705,-4.7142,-4.7125,-4.7194,-4.7221,-4.7243,-4.7255,-4.7305,-4.7335,-4.7011,-4.7011,-4.7011,0,0,-4.7327,-4.7222,-4.7159,-4.723,-4.7196,-4.7109,-4.7157,-4.7079,-4.7065,-4.7049,-4.6932,-4.6918,-4.6983,-4.6946,-4.6878,-4.7007,-4.6896,-4.691,-4.7028,-4.706,-4.7086,-4.7093,-4.6722,0,0,0,0,0,-4.7141,-4.7235,-4.718,-4.7177,-4.7133,-4.7141,-4.7135,-4.704,-4.6964,-4.7005,-4.6945,-4.6852,-4.6886,-4.6823,-4.6823,-4.6898,-4.6935,-4.6949,-4.6961,-4.7135,-4.717,-4.7199,0,0,0,0,0,0,-4.7139,-4.7136,-4.7177,-4.7095,-4.7084,-4.7137,-4.6987,-4.6964,-4.6957,-4.6939,-4.6866,-4.6849,-4.6769,-4.6817,-4.6818,-4.6891,-4.6722,-4.6941,-4.6952,-4.6962,-4.7147,-4.7175,-4.7199,0,0,0,0,0,-4.7137,-4.7134,-4.7088,-4.7093,-4.7084,-4.698,-4.6983,-4.6962,-4.6955,-4.6859,-4.6839,-4.6884,-4.6773,-4.6768,-4.6817,-4.6893,-4.672,-4.6721,-4.6948,-4.6957,-4.6965,-4.7161,0,0,0,0,0,0,-4.7135,-4.7116,-4.7084,-4.7078,-4.7048,-4.6975,-4.696,-4.6961,-4.6874,-4.6855,-4.687,-4.6857,-4.6778,-4.6773,-4.6769,-4.6899,-4.6719,-4.672,-4.672,-4.6955,-4.6962,-4.6968,0,0,0,0,0,0,-4.7117,-4.7112,-4.7081,-4.703,-4.7016,-4.6972,-4.6958,-4.6985,-4.6875,-4.6889,-4.6875,-4.6866,-4.6783,-4.6777,-4.6773,-4.6819,-4.6718,-4.6719,-4.6719,-4.672,-4.6961,-4.6966,0,0,0,0,0,0,-4.7113,-4.7108,-4.7031,-4.7021,-4.7009,-4.693,-4.6993,-4.6953,-4.6831,-4.6895,-4.6817,-4.6811,-4.679,-4.6785,-4.6777,-4.6825,-4.682,-4.6718,-4.6718,-4.6719,-4.6719,0,0,0,0,0,0,0,-4.711,-4.7161,-4.7122,-4.7013,-4.7003,-4.7019,-4.7018,-4.7016,-4.6829,-4.6824,-4.6818,-4.6813,-4.6713,-4.6714,-4.6715,-4.683,0,0,-4.6718,-4.6718,0,0,0,0,0,0,0,0,-4.7161,-4.7161,-4.7122,-4.712,-4.7119,-4.7019,-4.7018,-4.7016,-4.6828,-4.6824,-4.682,-4.6815,-4.6713,-4.6714,-4.6715,0,0,0,0,0,0,0,0,0,0,0,0,0,0,0,-4.7122,-4.712,0,-4.7019,-4.7018,-4.7016,-4.6828,-4.6824,-4.6821,-4.6817,-4.6714,-4.6714,-4.6715,0,0,0,0,0,0,0,0,0,0,0,0,0,0,0,0,0,0,0,0,0,0,0,0,0,0,0,0,0,0,0,0,0,0,0,0,0,0,0,0,0,0,0,0,0,0,0,0,0,0,0,0,0,0,0,0,0,0,0,0,0,0,0,0,0,0,0,0,0]}],[{"header":{"parameterUnit":"kt","parameterCategory":2,"dx":1,"dy":1,"la1":30.253999710083008,"la2":30.299108505249023,"lo1":-89.0895004272461,"lo2":-89.04439544677734,"nx":28,"ny":28,"refTime":"2022-10-15T21:00:00:Z","depth":0,"parameterNumber":2,"parameterNumberName":"V-component_of_WINDS"},"data":[3.8771,3.872,3.8754,3.871,3.8733,3.8708,3.8709,3.8714,3.8726,3.8697,3.8686,3.8712,3.8735,3.8727,3.8715,3.8726,3.8717,3.8675,3.8695,3.8857,3.8881,3.8904,3.8919,3.8674,3.8673,3.8523,3.8521,3.852,3.8888,3.8911,3.8898,3.8909,3.8897,3.8959,3.8971,3.8956,3.8931,3.8945,3.8936,3.8912,3.8896,3.8933,3.8922,3.8896,3.8922,3.889,3.8891,3.8893,3.9068,3.9084,3.8869,3.8869,3.8869,3.8869,3.8869,3.8869,3.911,3.9078,3.9105,3.9091,3.9105,3.9111,3.9085,3.912,3.9105,3.9101,3.9143,3.9113,3.9131,3.9133,3.9141,3.9117,3.9157,3.9131,3.9124,3.9116,3.9102,3.9314,3.9116,3.9117,3.9118,3.9118,3.9119,0,3.9283,3.9314,3.9304,3.9304,3.9296,3.9298,3.9305,3.929,3.9364,3.9348,3.9327,3.932,3.9306,3.9288,3.9284,3.9298,3.9355,3.9365,3.9347,3.9325,3.9307,3.9314,3.9596,3.9369,3.9371,3.9373,3.9374,3.9375,3.9508,3.9466,3.9511,3.9499,3.9512,3.9491,3.9484,3.9554,3.9543,3.956,3.9526,3.951,3.9501,3.9459,3.9495,3.9482,3.9509,3.9419,3.9507,3.949,3.9505,3.9506,3.9502,3.9399,3.9396,3.9394,3.9392,0,3.9631,3.9688,3.9634,3.9681,3.9692,3.9643,3.9682,3.9651,3.9688,3.9649,3.9644,3.9699,3.9676,3.9728,3.971,3.9737,3.9653,3.9681,3.9648,3.9655,3.9579,3.9584,3.9324,3.9293,3.955,3.9548,3.9546,0,3.9844,3.9786,3.9874,3.9839,3.9777,3.9849,3.9784,3.9809,3.9827,3.9797,3.9874,3.9844,3.9915,3.9891,3.9931,3.9872,3.9869,3.9885,3.9896,3.9877,3.9874,3.9868,3.9878,3.9924,3.9925,3.9927,3.9928,0,4.0029,4.0008,3.9953,3.9957,4.0,3.9972,3.9987,4.0009,4.0,3.9998,3.9994,3.9985,3.9979,3.997,4.0021,4.0078,3.995,4.004,3.9966,3.9965,3.9932,3.9933,3.9693,3.9929,3.993,3.993,3.993,0,4.0209,4.021,4.0121,4.016,4.0151,4.0113,4.0112,4.0092,4.0108,4.0132,4.013,4.0186,4.014,4.0226,4.0162,4.0223,4.0212,4.0224,4.022,4.0216,4.0309,4.0164,3.9933,3.9909,4.0217,4.0219,4.0221,0,4.0404,4.0331,4.0393,4.0306,4.028,4.037,4.0329,4.0341,4.037,4.035,4.0381,4.0355,4.043,4.0428,4.0391,4.042,4.0341,4.0433,4.0395,4.0393,4.0387,4.0176,4.0127,3.9979,4.0252,4.0249,4.0247,0,4.0562,4.0618,4.0598,4.0606,4.0636,4.0613,4.0566,4.0559,4.0542,4.0546,4.0507,4.0473,4.0527,4.0524,4.0567,4.0525,4.0396,4.0588,4.0589,4.055,4.0273,4.0227,4.0202,4.0435,4.0431,4.0428,4.0272,0,4.0818,4.0789,4.0739,4.0752,4.0744,4.0692,4.0751,4.0734,4.0779,4.0811,4.0754,4.0775,4.0762,4.0748,4.0789,4.0677,4.0703,4.0761,4.0844,4.0706,4.0656,4.0635,4.0915,4.0918,4.0921,4.0923,0,0,4.099,4.095,4.1018,4.0977,4.0974,4.1068,4.1007,4.1014,4.1024,4.1018,4.1067,4.102,4.1033,4.0957,4.0918,4.0913,4.0897,4.0943,4.0772,4.0755,4.0739,4.0685,4.0663,4.0927,4.0928,4.0928,4.0929,0,4.1096,4.1115,4.1057,4.1069,4.1088,4.1126,4.1111,4.1145,4.1162,4.1108,4.1182,4.1154,4.1113,4.1118,4.1114,4.0955,4.1009,4.0947,4.0842,4.0794,4.0774,4.0756,4.0698,4.0676,4.0935,4.0934,4.0934,0,4.1261,4.1289,4.1267,4.1267,4.1279,4.1248,4.1353,4.1315,4.1292,4.1391,4.1334,4.1352,4.1363,4.1284,4.125,4.1292,4.1108,4.1176,4.1163,4.1159,4.1114,4.109,4.1068,4.1352,4.1353,4.1354,0,0,4.1343,4.1317,4.1367,4.1293,4.1297,4.1351,4.134,4.1384,4.1394,4.1398,4.1422,4.1427,4.1404,4.1387,4.1368,4.1274,4.128,4.1225,4.1206,4.1189,4.1176,4.1127,4.1103,4.1359,4.1359,4.1359,0,0,4.1381,4.1438,4.1483,4.1406,4.1415,4.1456,4.1407,4.1462,4.1451,4.1463,4.1531,4.1535,4.1462,4.1476,4.1533,4.1398,4.148,4.1468,4.1391,4.1367,4.1348,4.1345,4.1638,0,0,0,0,0,4.152,4.1432,4.1472,4.1468,4.1465,4.1435,4.1434,4.1491,4.1549,4.151,4.1539,4.1599,4.1521,4.1573,4.1565,4.15,4.142,4.1409,4.1399,4.1278,4.1253,4.1231,0,0,0,0,0,0,4.1519,4.1514,4.1475,4.1512,4.1512,4.1439,4.1549,4.1563,4.1555,4.1568,4.1591,4.1599,4.1644,4.158,4.1573,4.151,4.1641,4.1415,4.1406,4.1398,4.127,4.1248,4.123,0,0,0,0,0,4.1518,4.1514,4.1495,4.1513,4.1513,4.1568,4.1553,4.1565,4.156,4.1604,4.1614,4.1603,4.1641,4.1638,4.1576,4.1512,4.1647,4.1644,4.1409,4.1402,4.1396,4.1259,0,0,0,0,0,0,4.1518,4.1523,4.1496,4.1498,4.1551,4.1573,4.1579,4.1567,4.1598,4.1607,4.162,4.1629,4.1638,4.1636,4.1634,4.1509,4.1651,4.1648,4.1646,4.1404,4.1398,4.1393,0,0,0,0,0,0,4.1526,4.1524,4.1497,4.1542,4.1549,4.1577,4.1582,4.1537,4.1597,4.1612,4.1621,4.1623,4.164,4.1634,4.1633,4.1559,4.1655,4.1652,4.165,4.1648,4.1399,4.1395,0,0,0,0,0,0,4.1526,4.1525,4.1542,4.1547,4.1554,4.158,4.1538,4.153,4.1639,4.1609,4.165,4.1655,4.1635,4.1635,4.1631,4.1558,4.1559,4.1655,4.1653,4.1651,4.165,0,0,0,0,0,0,0,4.1526,4.1523,4.1485,4.1552,4.1558,4.1516,4.1516,4.1517,4.164,4.1645,4.1649,4.1653,4.1671,4.1668,4.1665,4.1557,0,0,4.1655,4.1653,0,0,0,0,0,0,0,0,4.1525,4.1524,4.1485,4.1485,4.1486,4.1516,4.1516,4.1517,4.1641,4.1645,4.1648,4.1652,4.1671,4.1668,4.1665,0,0,0,0,0,0,0,0,0,0,0,0,0,0,0,4.1485,4.1485,0,4.1516,4.1516,4.1517,4.1642,4.1644,4.1647,4.165,4.167,4.1668,4.1666,0,0,0,0,0,0,0,0,0,0,0,0,0,0,0,0,0,0,0,0,0,0,0,0,0,0,0,0,0,0,0,0,0,0,0,0,0,0,0,0,0,0,0,0,0,0,0,0,0,0,0,0,0,0,0,0,0,0,0,0,0,0,0,0,0,0,0,0,0]}]]]